Other Public Products
Issued by NWS Grand Forks, ND

Home | Current Version | Previous Version | Text Only | Print | Product List | Glossary Off
Versions: 1 2 3 4 5 6 7 8 9 10 11 12 13 14 15 16 17 18 19 20 21 22 23 24 25 26 27 28 29 30 31 32 33 34 35 36 37 38 39 40 41 42 43 44 45 46 47 48 49 50

000
FPUS83 KFGF 171831
OPUFGF
PRAIRIE TO PINES WEATHER ROUNDUP
NATIONAL WEATHER SERVICE EASTERN NORTH DAKOTA/GRAND FORKS ND
1200 PM CST SUN DEC 17 2017

 **SATELLITE DATA USED TO AUGMENT SKY COVER AT AUTOMATED STATIONS**
 *****  WEATHER ACROSS EASTERN NORTH DAKOTA  *****

CITY           SKY/WX    TMP DP  RH WIND       PRES   REMARKS
GRAND FORKS    PTSUNNY   23  21  92 SW7       29.97F WCI  15
6HR MIN TEMP:  10; 6HR MAX TEMP:  24;

GRND FORKS AFB FAIR      30  19  63 W13       29.96F WCI  20
GRND FORKS NWS   N/A     25 N/A N/A SW10        N/A  WCI  15
BUXTON           N/A     23  22  99 SW5         N/A  WCI  16
DEVILS LAKE    FAIR      28  22  78 SW8       29.93F WCI  20
6HR MIN TEMP:  15; 6HR MAX TEMP:  28;

FARGO          FAIR      28  26  92 S8        30.01F WCI  20
6HR MIN TEMP:  21; 6HR MAX TEMP:  28;

WAHPETON ARPT  CLOUDY    32  30  93 SW5       30.02F
$$

 *****  WEATHER ACROSS CENTRAL AND WESTERN NORTH DAKOTA  *****

CITY           SKY/WX    TMP DP  RH WIND       PRES   REMARKS
JAMESTOWN      FAIR      33  27  78 SW3       29.96F
6HR MIN TEMP:  19; 6HR MAX TEMP:  34;

BISMARCK       FAIR      31  26  82 CALM      29.97F
6HR MIN TEMP:  14; 6HR MAX TEMP:  31;

MINOT          FAIR      36  21  54 S13G18    29.87F
6HR MIN TEMP:  21; 6HR MAX TEMP:  36;

MINOT AFB      FAIR      36  21  54 SW12      29.86F
6HR MIN TEMP:  18; 6HR MAX TEMP:  36;

GARRISON         N/A     33  24  69 S12       29.91F WCI  24
6HR MIN TEMP:  16; 6HR MAX TEMP:  33;

WILLISTON      FAIR      31  24  75 S7        29.84F WCI  24
6HR MIN TEMP:  14; 6HR MAX TEMP:  31;

DICKINSON      FAIR      36  23  59 SW16      29.87F
6HR MIN TEMP:  15; 6HR MAX TEMP:  36;

HETTINGER      CLOUDY    33  24  69 S10       29.93F WCI  25
6HR MIN TEMP:  11; 6HR MAX TEMP:  33;

$$

 *****  OTHER OBSERVATIONS NORTHEAST NORTH DAKOTA  *****

CITY           SKY/WX    TMP DP  RH WIND       PRES   REMARKS
WALHALLA       FAIR      30  18  59 W13G20    29.90F WCI  20
LANGDON        NOT AVBL
CAVALIER       FAIR      30  19  64 SW9       29.91F WCI  22
GRAFTON        NOT AVBL
CANDO          FAIR      28  28 100 S5        29.93F WCI  23
FORT TOTTEN      N/A     33  21  62 S6        29.95S
ROLLA          FAIR      27  18  69 SW14      29.87F WCI  15
RUGBY          NOT AVBL
 ***** THE ABOVE OBSERVATIONS ARE NON NWS ARE NOT QUALITY
        CONTROLLED AND MAY MIS-REPORT RAIN FOR SNOW...
$$

 *****  OTHER OBSERVATIONS SOUTHEAST NORTH DAKOTA *****

CITY           SKY/WX    TMP DP  RH WIND       PRES   REMARKS
COOPERSTOWN    FAIR      30  25  80 CALM      29.96F
VALLEY CITY    NOT AVBL
OAKES            N/A     32  30  93 S5        29.99F
GWINNER          N/A     34  28  80 SW7       30.00F
SHEYENNE NWR     N/A     32  31  94 SW2       29.95S
BUFFALO          N/A     29  27  89 S3          N/A
WYNDMERE       NOT AVBL
 ***** THE ABOVE OBSERVATIONS ARE NON NWS ARE NOT QUALITY
       CONTROLLED AND MAY MIS-REPORT RAIN FOR SNOW...
$$

  *****  WEATHER ACROSS NORTHERN MINNESOTA  *****

CITY           SKY/WX    TMP DP  RH WIND       PRES   REMARKS
FLAG ISLAND    FAIR      23  21  93 SW5       29.89F WCI  17
WARROAD        FAIR      25  19  80 SW8       29.92F WCI  16
ROSEAU         FAIR      23  18  80 S7        29.92F WCI  15
HALLOCK        FAIR      19  18  93 S8        29.93F WCI   9
THF RVR FALLS  FAIR      23  21  92 SW5       29.97F WCI  17
6HR MIN TEMP:  19; 6HR MAX TEMP:  23; 6HR PCP: TRACE;

HALSTAD        NOT AVBL
FOSSTON        FOG       27  25  93 SW8       29.97F VSB 1/4 WCI  18
BAUDETTE       FAIR      26  24  92 SW7       29.92F WCI  18
6HR MIN TEMP:  24; 6HR MAX TEMP:  26;

WASKISH        CLOUDY    27  25  93 SW10      29.95F WCI  17
CROOKSTON      FAIR      19  19 100 S3        29.98F
$$
  *****  WEATHER ACROSS CENTRAL AND WEST MINNESOTA  *****

CITY           SKY/WX    TMP DP  RH WIND       PRES   REMARKS
BEMIDJI        FAIR      32  26  81 SW6       29.96F
6HR MIN TEMP:  20; 6HR MAX TEMP:  30;

PARK RAPIDS    CLOUDY    26  25  96 S8        29.98F WCI  18
6HR MIN TEMP:  23; 6HR MAX TEMP:  26;

WADENA         CLOUDY    27  27 100 SW5       30.00F FOG     WCI  21
DETROIT LAKES  CLOUDY    28  28 100 S6        30.00F FOG     WCI  22
MOORHEAD       CLOUDY    28  27  93 CALM      30.01F FOG
FERGUS FALLS   CLOUDY    28  28 100 S5        30.04F FOG     WCI  23
ELBOW LAKE     CLOUDY    28  28 100 S7        30.02F FOG     WCI  21
6HR MIN TEMP:  23; 6HR MAX TEMP:  28;

MORRIS MN      CLOUDY    28  28 100 S6        30.02F FOG     WCI  22
STAPLES        CLOUDY    25  25 100 S3        30.01F FOG
WHEATON        FAIR      30  28  93 SE6       30.03F FOG     WCI  24
$$
  *****  WEATHER ELSEWHERE ACROSS MINNESOTA  *****

CITY           SKY/WX    TMP DP  RH WIND       PRES   REMARKS
DULUTH         CLOUDY    22  20  92 SW5       30.00F FOG     WCI  16
6HR MIN TEMP:  19; 6HR MAX TEMP:  22;

INTRNTL FALLS  CLOUDY    27  24  89 SW9       29.93F FOG     WCI  18
6HR MIN TEMP:  22; 6HR MAX TEMP:  27;

ELY            CLOUDY    21  19  93 S8        29.97F WCI  12
CLOQUET        PTSUNNY   25  19  80 S6        30.01F WCI  18
BRAINERD       CLOUDY    25  22  88 SW7       30.03F FOG     WCI  17
6HR MIN TEMP:  24; 6HR MAX TEMP:  25;

HIBBING        CLOUDY    21  20  96 S5        30.00F WCI  15
6HR MIN TEMP:  19; 6HR MAX TEMP:  21;

ALEXANDRIA     CLOUDY    28  27  96 S7        30.02F FOG     WCI  21
6HR MIN TEMP:  27; 6HR MAX TEMP:  28;

SAINT CLOUD    CLOUDY    24  20  84 CALM      30.04F
6HR MIN TEMP:  20; 6HR MAX TEMP:  25;

MINNEAPOLIS    CLOUDY    27  24  89 CALM      30.05S FOG
6HR MIN TEMP:  21; 6HR MAX TEMP:  27;

$$

  *****  WEATHER ACROSS SOUTH DAKOTA  *****

CITY           SKY/WX    TMP DP  RH WIND       PRES   REMARKS
SIOUX FALLS    PTSUNNY   33  30  88 CALM      30.03F
6HR MIN TEMP:  22; 6HR MAX TEMP:  33;

BROOKINGS      CLOUDY    34  31  88 CALM      30.02F
WATERTOWN      FAIR      34  31  88 SW8       30.00F
6HR MIN TEMP:  27; 6HR MAX TEMP:  34;

HURON          CLOUDY    37  33  85 MISG      30.03F
6HR MIN TEMP:  28; 6HR MAX TEMP:  37;

SISSETON         N/A     38  33  82 W5        30.00F
ABERDEEN       FAIR      34  29  82 S6        30.02F
6HR MIN TEMP:  24; 6HR MAX TEMP:  34;

MITCHELL       CLOUDY    36  33  89 CALM      30.06F
PIERRE         CLOUDY    34  30  85 SW6       30.01F
6HR MIN TEMP:  29; 6HR MAX TEMP:  34;

MOBRIDGE       FAIR      38  26  62 S6        29.96F
RAPID CITY     CLOUDY    34  25  69 S15       29.93F WCI  24
6HR MIN TEMP:  28; 6HR MAX TEMP:  34;

$$

  *****  SOME WEATHER IN NEARBY STATES *****

CITY           SKY/WX    TMP DP  RH WIND       PRES   REMARKS
GLASGOW MT     FAIR      30  25  81 S8        29.78F WCI  22
6HR MIN TEMP:  16; 6HR MAX TEMP:  30;

GREAT FALLS MT FAIR      34  16  47 SW23G40   29.82R WCI  22
6HR MIN TEMP:  25; 6HR MAX TEMP:  34;

CHEYENNE WY    FAIR      29  28  96 SW9       29.93F WCI  20
6HR MIN TEMP:  24; 6HR MAX TEMP:  29; 6HR PCP: TRACE;

SCOTTSBLUFF NE PTSUNNY   38  29  70 S5        29.97F
6HR MIN TEMP:  31; 6HR MAX TEMP:  38;

OMAHA NE       PTSUNNY   36  28  73 N8        30.00F
6HR MIN TEMP:  29; 6HR MAX TEMP:  34; 6HR PCP: TRACE;

DES MOINES IA  LGT RAIN  34  28  79 NW3       30.02S
6HR MIN TEMP:  31; 6HR MAX TEMP:  35; 6HR PCP:  0.01;

DAVENPORT IA   FAIR      39  31  72 SE7       30.03F
6HR MIN TEMP:  30; 6HR MAX TEMP:  39;

CHICAGO IL     CLOUDY    39  34  82 N5        30.02F HAZE
6HR MIN TEMP:  34; 6HR MAX TEMP:  39;

EAU CLAIRE WI  CLOUDY    28  26  92 SE7       30.04F FOG     WCI  21
6HR MIN TEMP:  25; 6HR MAX TEMP:  28;

LA CROSSE WI   CLOUDY    32  28  85 S5        30.04F
6HR MIN TEMP:  29; 6HR MAX TEMP:  32;

$$

  *****  SOME NATIONAL WEATHER *****

CITY           SKY/WX    TMP DP  RH WIND       PRES   REM



USA.gov is the U.S. government's official web portal to all federal, state and local government web resources and services.